Weather in Lombok-Kuta

Indonesia     8°52′14″S   116°16′50″E
temp.,
°C
wind,
m/s
gust,
m/s
humid.,
%
clouds,
%
prec.,
mm/h
press.,
hPa
HPBL,
m
17 april, sat
sat1723:00+24e128874 0.1 101341
02:00+23ne1290100 0.3 101235
05:00+22ene129110 0.0 101230
08:00+25e23805 0.0 1013206
11:00+29se446732 0.0 1012914
14:00+30sse5464100 0.0 10091076
17:00+27sse347886 2.0 1010325
20:00+24ssw028998 3.8 101241
18 april, sun
sun1823:00+23ne119112 1.8 101327
02:00+23ne118894 1.8 101223
05:00+22ne118770 0.1 101217
08:00+25ne01799 0.2 1013142
11:00+29se33655 0.0 1012913
14:00+29se5569100 0.8 10101043
17:00+27se4781100 2.4 1010583
20:00+25se4108973 4.1 1012320
19 april, mon
mon1923:00+24e239199 0.3 101284
02:00+23ene129154 0.6 101157
05:00+23ene129165 0.0 101147
08:00+26ese2580100 0.0 1012339
11:00+29se5664100 0.0 10121077
14:00+29se67645 0.0 10091022
17:00+27sse57734 0.0 1009879
20:00+24ese23835 0.0 101189
20 april, tue
tue2023:00+23ene12853 0.0 101243
02:00+23ene12864 0.1 101040
05:00+22nne118829 0.0 101041
08:00+26se24745 0.0 1012415
11:00+28se45595 0.0 10111340
14:00+28sse54565 0.0 10091268
17:00+26sse45665 0.0 1010710
20:00+23e127471 0.0 101241
21 april, wed
wed2123:00+22nne127892 0.0 101340
02:00+21nne118081 0.0 101240
05:00+21nne118054 0.0 101238
08:00+24ene1171100 0.0 1013139
11:00+28sse33596 0.0 10131349
14:00+28s535819 0.0 10101299
17:00+26sse34675 0.0 1011921
20:00+22e1177100 0.0 101338